DateTimeUTC,F1_A11,F1_S11,BsB_S11,BsG_S11,BsR_S11,BbsB_S11,BbsG_S11,BbsR_S11,BaB_A11,BaG_A11,BaR_A11,Tu_S11,T_S11,Uu_S11,U_S11,P_S11,T1_A11
2021-05-15T08:00:00Z,00040200,21000000,,,,,,,-000.99,-000.95,-000.35,15.0,22.1,,00.0,0674.1,30.8
2021-05-15T08:01:00Z,00040200,21000000,,,,,,,-000.76,-000.86,-000.94,15.0,22.1,,00.0,0674.1,30.8
2021-05-15T08:02:00Z,00040200,21000000,,,,,,,-000.00,-000.40,-000.01,15.0,22.2,,00.0,0674.1,30.8
2021-05-15T08:03:00Z,00040200,61000000,,,,,,,-000.85,-000.59,-000.50,15.0,22.2,,00.0,0674.1,30.8
2021-05-15T08:04:00Z,00040200,41000000,-000.57,-000.13,-000.02,0000.02,-000.07,0000.02,0000.54,0000.79,0000.19,15.1,22.0,,00.0,0675.1,30.8
2021-05-15T08:05:00Z,00040200,01000000,-000.20,-000.18,-000.12,-000.13,-000.05,0000.20,0000.60,0000.27,0000.25,15.1,21.9,,00.0,0675.2,30.8
2021-05-15T08:06:00Z,00040200,01000000,-000.45,0000.02,-000.20,-000.06,0000.23,0000.08,0000.74,0000.52,0000.63,15.1,21.8,,00.0,0675.1,30.7
2021-05-15T08:07:00Z,00040200,01000000,-000.71,0000.06,-000.10,-000.07,-000.04,-000.06,0000.22,0000.91,0000.59,15.0,21.8,,00.0,0675.1,30.7
2021-05-15T08:08:00Z,00040200,01000000,-000.52,0000.05,0000.04,-000.44,0000.03,0000.29,0000.72,0000.43,0000.14,15.0,21.8,,00.0,0675.1,30.7
2021-05-15T08:09:00Z,00040200,01000000,-000.83,-000.15,0000.26,0000.42,-000.25,0000.09,0001.11,0000.65,0000.69,15.0,21.7,,00.0,0675.1,30.7
2021-05-15T08:10:00Z,00040200,01000000,-000.09,0000.32,0000.01,-000.24,0000.26,-000.14,0000.68,0000.79,0000.81,15.0,21.7,,00.0,0675.1,30.7
2021-05-15T08:11:00Z,00040200,01000000,-000.13,0000.06,0000.16,-000.30,0000.01,0000.27,-000.16,-000.08,-000.51,15.0,21.7,,00.0,0675.1,30.8
2021-05-15T08:12:00Z,00040200,01000000,-000.20,0000.27,0000.32,-000.20,0000.06,0000.16,0000.21,-000.29,0000.47,15.1,21.7,00.0,00.0,0675.1,30.8
2021-05-15T08:13:00Z,00040200,01000000,-000.62,0000.20,0000.32,-000.27,0000.22,0000.35,0000.51,0001.05,0000.50,15.1,21.8,00.0,00.0,0675.1,30.8
2021-05-15T08:14:00Z,00040200,01000000,-000.05,0000.01,0000.12,-000.05,-000.22,0000.27,0000.40,0000.33,0000.21,15.2,21.8,,00.0,0675.1,30.8
2021-05-15T08:15:00Z,00040200,01000000,0000.03,-000.11,0000.27,-000.06,-000.01,0000.28,0000.17,0000.04,0000.17,15.3,21.9,00.0,00.0,0675.1,30.8
2021-05-15T08:16:00Z,00040200,01000000,-000.21,-000.09,0000.21,-000.21,-000.26,0000.03,-001.60,-001.20,-001.20,15.3,21.8,00.0,00.0,0675.2,30.8
2021-05-15T08:17:00Z,00040200,01000000,-000.13,0000.00,0000.35,0000.26,-000.08,0000.07,-001.19,-001.31,-000.90,15.3,21.9,,00.0,0675.2,30.8
2021-05-15T08:18:00Z,00040200,01000000,-000.15,0000.26,0000.18,0000.20,0000.16,0000.14,-001.05,-001.15,-001.11,15.2,21.8,,00.0,0675.2,30.8
2021-05-15T08:19:00Z,00040200,01000000,0000.42,-000.10,0000.09,0000.11,-000.04,0000.06,0000.85,0000.59,0000.78,15.2,21.8,,00.0,0675.2,30.8
2021-05-15T08:20:00Z,00040200,01000000,-000.78,0000.05,-000.09,0000.07,0000.02,0000.22,0002.04,0001.98,0001.70,15.2,21.8,,00.0,0675.2,30.7
2021-05-15T08:21:00Z,00040200,01000000,0000.69,0000.13,0000.22,0000.15,0000.01,0000.17,0002.15,0002.03,0001.39,15.1,21.8,00.0,00.0,0675.2,30.7
2021-05-15T08:22:00Z,00040200,01000000,0000.13,-000.34,-000.24,0000.19,0000.17,-000.11,-000.72,-000.36,-000.37,15.1,21.7,00.0,00.0,0675.2,30.7
2021-05-15T08:23:00Z,00040200,01000000,0000.09,0000.00,0000.14,-000.36,-000.13,0000.33,-000.45,-000.71,-000.38,15.0,21.7,,00.0,0675.2,30.7
2021-05-15T08:24:00Z,00040200,01000000,-000.30,-000.03,0000.11,-000.10,-000.26,0000.36,-000.65,-000.74,-000.71,15.0,21.7,,00.0,0675.2,30.7
2021-05-15T08:25:00Z,00040200,01000000,-000.26,-000.03,0000.03,-000.35,-000.14,0000.03,0000.11,0000.82,0000.64,15.0,21.7,,00.0,0675.2,30.7
2021-05-15T08:26:00Z,00040200,01000000,-000.18,0000.07,0000.13,-000.26,-000.09,0000.11,0000.80,0000.69,0000.20,15.0,21.7,,00.0,0675.2,30.7
2021-05-15T08:27:00Z,00040200,01000000,-000.18,-000.19,0000.25,0000.20,-000.05,0000.12,0001.55,0001.24,0001.07,15.1,21.7,00.0,00.0,0675.2,30.8
2021-05-15T08:28:00Z,00040200,01000000,-000.46,0000.14,0000.17,-000.52,-000.06,0000.08,0000.81,0000.82,0000.79,15.1,21.7,00.1,00.1,0675.1,30.8
2021-05-15T08:29:00Z,00040200,01000000,0000.10,-000.01,0000.37,-000.03,-000.03,0000.21,0000.12,0000.11,0000.42,15.2,21.7,00.1,00.1,0675.2,30.8
2021-05-15T08:30:00Z,00040200,01000000,-000.28,-000.47,0000.11,0000.34,-000.25,0000.02,0000.20,0000.14,0000.08,15.2,21.8,00.1,00.1,0675.2,30.8
2021-05-15T08:31:00Z,00040200,01000000,0000.46,0000.15,0000.05,0000.19,-000.04,0000.22,0000.45,0000.07,0000.11,15.3,21.8,00.2,00.1,0675.2,30.8
2021-05-15T08:32:00Z,00040200,01000000,0000.10,-000.08,0000.11,0000.40,0000.03,0000.11,-000.04,0000.45,0000.40,15.3,21.8,00.2,00.1,0675.2,30.8
2021-05-15T08:33:00Z,00040200,01000000,0000.07,-000.03,0000.02,-000.30,-000.15,0000.00,0000.34,-000.12,0000.08,15.3,21.8,00.2,00.2,0675.2,30.8
2021-05-15T08:34:00Z,00040200,01000000,-000.05,-000.13,0000.13,0000.23,-000.02,-000.08,0001.10,0000.50,0000.21,15.3,21.8,00.4,00.2,0675.2,30.8
2021-05-15T08:35:00Z,00040200,01000000,0000.02,0000.20,0000.11,-000.08,0000.43,0000.20,-000.25,0000.19,-000.18,15.2,21.8,00.5,00.3,0675.2,30.8
2021-05-15T08:36:00Z,00040200,01000000,0000.03,-000.14,-000.06,-000.33,0000.02,0000.44,-000.83,-000.36,-000.28,15.2,21.7,00.3,00.2,0675.2,30.7
2021-05-15T08:37:00Z,00040200,01000000,-000.78,0000.23,0000.11,-000.26,-000.17,0000.24,0000.79,0000.35,0000.34,15.1,21.7,00.3,00.2,0675.2,30.7
2021-05-15T08:38:00Z,00040200,01000000,-000.37,0000.02,-000.02,0000.13,0000.13,0000.10,0000.50,0000.48,0000.71,15.1,21.7,00.3,00.2,0675.2,30.7
2021-05-15T08:39:00Z,00040200,01000000,-000.20,0000.31,-000.06,0000.03,-000.20,0000.20,-001.39,-001.21,-001.18,15.0,21.7,00.4,00.3,0675.2,30.7
2021-05-15T08:40:00Z,00040200,01000000,-000.02,-000.16,-000.10,-000.07,0000.04,-000.03,-000.32,-000.31,-000.32,15.0,21.7,00.2,00.1,0675.2,30.7
2021-05-15T08:41:00Z,00040200,01000000,-000.40,-000.07,-000.06,-000.22,-000.14,0000.16,0000.05,0000.26,0000.02,15.1,21.7,00.2,00.1,0675.2,30.8
2021-05-15T08:42:00Z,00040200,01000000,-000.49,-000.16,0000.09,-000.02,-000.04,0000.22,-000.19,-000.00,0000.04,15.1,21.7,00.2,00.1,0675.2,30.8
2021-05-15T08:43:00Z,00040200,01000000,0000.60,-000.20,0000.22,-000.41,-000.04,-000.06,-000.05,-000.33,0000.24,15.2,21.7,00.1,00.1,0675.2,30.8
2021-05-15T08:44:00Z,00040200,01000000,0000.01,-000.18,0000.13,-000.20,0000.20,0000.05,0000.72,0000.65,0000.19,15.2,21.8,00.2,00.1,0675.2,30.8
2021-05-15T08:45:00Z,00040200,01000000,0000.60,-000.20,0000.01,0000.41,-000.28,0000.25,0001.26,0000.72,0000.73,15.3,21.8,00.3,00.2,0675.2,30.8
2021-05-15T08:46:00Z,00040200,01000000,0000.01,0000.00,0000.09,-000.32,-000.01,0000.07,0000.23,0000.70,0000.53,15.3,21.8,00.4,00.3,0675.2,30.8
2021-05-15T08:47:00Z,00040200,01000000,0001.67,0001.35,0001.03,0000.34,0000.20,0000.43,0000.96,0001.05,0001.07,15.4,21.9,00.7,00.5,0675.2,30.8
2021-05-15T08:48:00Z,00040200,01000000,0001.94,0001.55,0001.19,0000.64,0000.21,0000.32,0001.44,0000.97,0000.60,15.4,21.9,00.7,00.5,0675.2,30.8
2021-05-15T08:49:00Z,00040200,01000000,0002.13,0001.80,0001.08,0000.08,0000.28,0000.22,0000.78,0001.18,0000.74,15.4,21.8,00.8,00.5,0675.2,30.8
2021-05-15T08:50:00Z,00040200,01000000,0002.04,0001.87,0001.16,0000.64,-000.07,0000.27,0001.17,0000.91,0000.65,15.3,21.8,00.9,00.6,0675.3,30.8
2021-05-15T08:51:00Z,00040200,01000000,0001.93,0001.68,0001.44,0000.22,0000.40,0000.43,0001.52,0001.30,0001.45,15.3,21.8,00.9,00.6,0675.3,30.8
2021-05-15T08:52:00Z,00040200,01000000,0001.41,0001.34,0000.95,-000.02,0000.36,0000.21,0000.45,0000.25,0000.08,15.3,21.8,01.0,00.7,0675.3,30.7
2021-05-15T08:53:00Z,00040200,01000000,0001.38,0001.36,0001.32,0000.73,0000.19,0000.62,-000.32,-000.16,-000.67,15.2,21.7,00.8,00.5,0675.3,30.7
2021-05-15T08:54:00Z,00040200,01000000,0001.60,0001.39,0000.97,0000.33,0000.26,0000.43,0001.87,0001.57,0001.58,15.2,21.7,00.8,00.5,0675.3,30.7
2021-05-15T08:55:00Z,00040200,01000000,0002.05,0000.83,0000.81,-000.08,0000.20,0000.13,-000.15,0000.21,0000.10,15.2,21.7,01.0,00.7,0675.4,30.7
2021-05-15T08:56:00Z,00040200,01000000,0001.18,0000.97,0000.92,-000.12,0000.19,0000.32,-000.44,-000.82,-000.82,15.2,21.7,00.6,00.4,0675.4,30.8
2021-05-15T08:57:00Z,00040200,41000000,,,,,,,-000.83,-000.55,-000.23,15.3,21.8,00.6,00.4,0675.3,30.8
2021-05-15T08:58:00Z,00040200,61000000,,,,,,,0000.28,-000.00,0000.35,15.1,21.9,00.0,00.0,0674.3,30.8
2021-05-15T08:59:00Z,00040200,21000000,,,,,,,0000.56,0001.13,0000.46,15.1,22.1,,00.0,0674.2,30.8
